Flag for U.S.A. Weather past 2 weeks in Cumberland, Maryland, U.S.A.

Now
65 °F

Fog.


Feels Like: 65 °F
Forecast: 60 / 82 °F
Wind: No wind

Location: Eastern West Virginia Regional Airport

Current Time: Jul 5, 2015 at 6:08:25 AM

Latest Report: Jul 5, 2015 at 4:53 AM


Visibility: 4 mi

Pressure: 30.07 "Hg

Humidity: 91%

Dew point: 62 °F

Location of CumberlandLocation

Historic Weather in Cumberland — Graph

°F

Cumberland temperature yesterday

Maximum temperature yesterday: 79 °F (at 2:53 PM)
Minimum temperature yesterday: 67 °F (at 2:53 AM)
Average temperature yesterday: 71 °F

Past Weeks' High & Low Weather Summary

 TemperatureHumidityPressure
High91 °F (Jun 23, 4:53 PM)97% (Jul 3, 1:53 AM)30.11 "Hg (Jul 3, 1:53 AM)
Low57 °F (Jun 29, 2:53 AM)33% (Jun 24, 4:53 PM)29.69 "Hg (Jun 28, 3:53 AM)
Average72 °F74%29.93 "Hg
* Reported Jun 20 4:53 AM — Jul 5 4:53 AM, Cumberland, Weather by CustomWeather, © 2015

Note: Actual official high and low records may vary slightly from our data, if they occured in-between our weather recording intervals... More about our weather records

Advertising

Cumberland weather history for previous 24 hours

 ConditionsComfort  
Time TempWeatherWind HumidityBarometerVisibility
4:53 AM
Sun, Jul 5
65 °FFog.No wind91%30.07 "Hg4 mi
3:53 AM65 °FFog.No wind94%30.08 "Hg4 mi
2:53 AM65 °FFog.No wind94%30.07 "Hg3 mi
2:04 AM65 °FFog.No wind94%30.07 "Hg2 mi
1:53 AM66 °FFog.No wind93%30.06 "Hg3 mi
12:53 AM68 °FFog.No wind90%30.06 "Hg5 mi
11:53 PM
Sat, Jul 4
68 °FFog.No wind90%30.05 "Hg4 mi
10:53 PM67 °FFog.No wind93%30.03 "Hg5 mi
9:53 PM70 °FClear.No wind87%30.01 "Hg10 mi
8:53 PM72 °FPassing clouds.3 mph81%29.98 "Hg10 mi
7:53 PM74 °FSunny.5 mph76%29.96 "Hg10 mi
6:53 PM76 °FSunny.9 mph72%29.94 "Hg10 mi
5:53 PM77 °FPartly sunny.8 mph71%29.93 "Hg10 mi
4:53 PM78 °FOvercast.8 mph74%29.92 "Hg9 mi
3:53 PM77 °FMostly cloudy.7 mph74%29.91 "Hg9 mi
2:53 PM79 °FBroken clouds.8 mph69%29.90 "Hg9 mi
1:58 PM74 °FLight rain. Fog.No wind88%29.92 "Hg3 mi
12:53 PM76 °FCloudy.No wind74%29.90 "Hg9 mi
11:53 AM74 °FScattered clouds.3 mph82%29.90 "Hg7 mi
10:53 AM72 °FCloudy.5 mph84%29.90 "Hg6 mi
9:53 AM70 °FLight rain. Fog.5 mph90%29.91 "Hg3 mi
8:53 AM70 °FRain. Fog.3 mph87%29.90 "Hg2 mi
7:53 AM68 °FFog.No wind93%29.90 "Hg3 mi
6:53 AM67 °FFog.No wind93%29.89 "Hg2 mi
Weather by CustomWeather, © 2015

See weather overviewHow to use our weather pages